This demonstration page uses our WeatherBlox Daily Observations layout. Learn more.

Hourly Observations for June 26, 2017

Temp ( °F °C ) Dew Point ( °F °C ) Humidity (%) Winds ( mph kmh ) Pressure ( in mb ) Visibility ( mi km ) Precip ( " mm )
12:54 am 00:54 Clear 62 16.7 50 10 65 65 WSW 3 6 30.2 1023 10 16.0934 0 0
1:54 am 01:54 Clear 61 16.1 49 9.4 65 65 WSW 6 9 30.18 1022 10 16.0934 0 0
2:54 am 02:54 Clear 61 16.1 51 10.6 70 70 SW 9 15 30.16 1021 10 16.0934 0 0
3:54 am 03:54 Partly Cloudy 63 17.2 52 11.1 68 68 WSW 8 13 30.16 1021 10 16.0934 0 0
4:54 am 04:54 Mostly Clear 63 17.2 52 11.1 68 68 WSW 7 11 30.16 1021 10 16.0934 0 0
5:54 am 05:54 Clear 63 17.2 52 11.1 68 68 NW 5 7 30.16 1022 10 16.0934 0 0
6:54 am 06:54 Cloudy with Nearby Thunderstorms 61 16.1 53 11.7 75 75 NNE 7 11 30.2 1023 10 16.0934 0 0.0254
7:23 am 07:23 Cloudy with Light Thunderstorms 61 16.1 53 11.7 75 75 Calm 30.21 1023 10 16.0934 0 0.0254
7:38 am 07:38 Cloudy with Light Rain 61 16.1 54 12.2 78 78 NE 3 6 30.24 1024 10 16.0934 0 0.0254
7:54 am 07:54 Cloudy with Light Rain 61 16.1 55 12.8 81 81 E 3 6 30.2 1023 10 16.0934 0.01 0.254
8:40 am 08:40 Cloudy with Thunderstorms 60 15.6 56 13.3 86 86 SSE 6 9 30.21 1023 3 4.82802 0.08 2.032
8:54 am 08:54 Cloudy with Light Thunderstorms 60 15.6 57 13.9 90 90 SE 6 9 30.2 1023 10 16.0934 0.15 3.81
9:09 am 09:09 Cloudy with Nearby Thunderstorms 61 16.1 57 13.9 87 87 SE 7 11 30.21 1023 10 16.0934 0 0.0254
9:47 am 09:47 Mostly Sunny 65 18.3 59 15 81 81 S 9 15 30.21 1023 10 16.0934 0 0.0254
9:54 am 09:54 Partly Cloudy 64 17.8 58 14.4 81 81 S 9 15 30.18 1022 10 16.0934 0 0.0254
10:54 am 10:54 Cloudy 65 18.3 58 14.4 78 78 S 8 13 30.18 1022 10 16.0934 0 0
11:54 am 11:54 Sunny 68 20 60 15.6 76 76 S 7 11 30.16 1021 10 16.0934 0 0
12:35 pm 12:35 Mostly Cloudy with Nearby Thunderstorms 70 21.1 60 15.6 71 71 SW 8 13 30.15 1021 10 16.0934 0 0
12:54 pm 12:54 Cloudy with Light Rain 69 20.6 60 15.6 73 73 SSE 6 9 30.15 1021 10 16.0934 0 0.0254
1:08 pm 13:08 Cloudy with Light Rain 68 20 63 17.2 84 84 S 9 15 30.12 1020 4 6.43736 0.01 0.254
1:20 pm 13:20 Cloudy with Light Rain 68 20 62 16.7 81 81 SSE 8 13 30.15 1021 10 16.0934 0.01 0.254
1:54 pm 13:54 Cloudy 70 21.1 62 16.7 76 76 S 6 9 30.14 1021 10 16.0934 0.01 0.254
2:54 pm 14:54 Mostly Sunny 74 23.3 62 16.7 67 67 SE 6 9 30.11 1020 10 16.0934 0 0
3:54 pm 15:54 Mostly Cloudy 75 23.9 60 15.6 60 60 ENE 10 17 30.09 1019 10 16.0934 0 0
4:54 pm 16:54 Partly Cloudy 77 25 60 15.6 56 56 E 8 13 30.09 1019 10 16.0934 0 0
5:54 pm 17:54 Mostly Sunny 77 25 56 13.3 48 48 NNE 7 11 30.08 1019 10 16.0934 0 0
6:54 pm 18:54 Mostly Cloudy 74 23.3 55 12.8 52 52 NE 9 15 30.09 1019 10 16.0934 0 0
7:54 pm 19:54 Partly Cloudy 74 23.3 52 11.1 46 46 ENE 10 17 30.09 1019 10 16.0934 0 0
8:54 pm 20:54 Mostly Cloudy 69 20.6 52 11.1 55 55 ENE 7 11 30.1 1019 10 16.0934 0 0
9:54 pm 21:54 Clear 68 20 51 10.6 55 55 E 5 7 30.11 1020 10 16.0934 0 0
10:54 pm 22:54 Mostly Clear 64 17.8 51 10.6 63 63 ENE 6 9 30.12 1020 10 16.0934 0 0
11:54 pm 23:54 Clear 60 15.6 52 11.1 75 75 ENE 6 9 30.13 1020 10 16.0934 0 0

Powered by AerisWeather